Faribault, MN

1:59 PM CDT on August 21, 2017 (GMT -0500)
Faribault Municipal

Weather History for KFBL - April, 2014

Change the Weather History Date:

Thursday, April 3, 2014

  Actual Average Record
Temperature  
Mean Temperature 36 °F -  
Max Temperature 39 °F 49 °F 80 °F (1981)
Min Temperature 33 °F 28 °F 8 °F (1954)
Degree Days  
Heating Degree Days 29    
Moisture  
Dew Point 28 °F    
Average Humidity 72    
Maximum Humidity 81    
Minimum Humidity 49    
Precipitation  
Precipitation 0.19 in - - ()
Sea Level Pressure  
Sea Level Pressure 29.88 in    
Wind  
Wind Speed 10 mph (NE)    
Max Wind Speed 18 mph    
Max Gust Speed 24 mph    
Visibility 7 miles    
Events Rain , Snow    
Averages and records for this station are not official NWS values.
T = Trace of Precipitation, MM = Missing Value Source: NWS Daily Summary

Daily Weather History Graph

Daily Weather History Graph

Search for Another Location

Airport or City:

Trip Planner

Search our weather history database for the weather conditions in past years. The results will help you decide how hot, cold, wet, or windy it might be!

Date:

Astronomy

Apr. 03, 2014 Rise Set
Actual Time 6:50 AM CDT 7:43 PM CDT
Civil Twilight 6:21 AM CDT 8:12 PM CDT
Nautical Twilight 5:46 AM CDT 8:47 PM CDT
Astronomical Twilight 5:09 AM CDT 9:24 PM CDT
Moon 9:12 AM CDT (4/3) No Moon Set
Length of Visible Light 13h 51m
Length of Day
12h 52m
Waxing Crescent, 17% of the Moon is Illuminated
Apr 3
Waxing Crescent
Apr 7
First Quarter
Apr 15
Full
Apr 22
Last Quarter
Apr 29
New

Hourly Weather History & Observations

Time (CDT) Temp. Windchill Dew Point Humidity Pressure Visibility Wind Dir Wind Speed Gust Speed Precip Events Conditions
12:14 AM 39.2 °F 35.0 °F 21.2 °F 49% 30.03 in 10.0 mi NNE 5.8 mph - N/A   Overcast
12:33 AM 39.2 °F 35.9 °F 21.2 °F 49% 30.03 in 10.0 mi NNE 4.6 mph - N/A   Overcast
12:54 AM 39.2 °F - 21.2 °F 49% 30.05 in 10.0 mi Calm Calm - N/A   Overcast
1:14 AM 39.2 °F 35.9 °F 21.2 °F 49% 30.05 in 10.0 mi ENE 4.6 mph - N/A   Overcast
1:34 AM 39.2 °F 31.2 °F 24.8 °F 56% 30.02 in 10.0 mi ENE 13.8 mph 23.0 mph N/A   Overcast
1:54 AM 39.2 °F 31.2 °F 26.6 °F 61% 30.00 in 10.0 mi ENE 13.8 mph 18.4 mph N/A   Overcast
2:14 AM 39.2 °F 31.6 °F 28.4 °F 65% 29.98 in 5.0 mi East 12.7 mph 21.9 mph N/A   Overcast
2:34 AM 37.4 °F 28.9 °F 28.4 °F 70% 29.97 in 10.0 mi East 13.8 mph 23.0 mph N/A   Overcast
2:54 AM 37.4 °F 28.9 °F 30.2 °F 75% 29.97 in 10.0 mi East 13.8 mph 21.9 mph N/A   Overcast
3:14 AM 37.4 °F 29.3 °F 30.2 °F 75% 29.97 in 7.0 mi East 12.7 mph 20.7 mph N/A   Overcast
3:34 AM 37.4 °F 29.3 °F 30.2 °F 75% 29.95 in 7.0 mi East 12.7 mph 19.6 mph N/A   Overcast
3:54 AM 37.4 °F 28.9 °F 30.2 °F 75% 29.95 in 10.0 mi ENE 13.8 mph 21.9 mph N/A   Overcast
4:14 AM 37.4 °F 29.8 °F 28.4 °F 70% 29.96 in 10.0 mi ENE 11.5 mph 18.4 mph N/A   Overcast
4:34 AM 37.4 °F 28.9 °F 28.4 °F 70% 29.96 in 10.0 mi ENE 13.8 mph - N/A   Overcast
4:54 AM 37.4 °F 30.3 °F 28.4 °F 70% 29.96 in 10.0 mi NE 10.4 mph - N/A   Overcast
5:14 AM 37.4 °F 28.2 °F 28.4 °F 70% 29.96 in 7.0 mi ENE 16.1 mph 19.6 mph N/A   Drizzle
5:34 AM 37.4 °F 30.3 °F 28.4 °F 70% 29.95 in 10.0 mi NE 10.4 mph 20.7 mph N/A   Overcast
5:54 AM 37.4 °F 29.3 °F 28.4 °F 70% 29.94 in 10.0 mi NE 12.7 mph 18.4 mph N/A   Overcast
6:14 AM 37.4 °F 28.9 °F 28.4 °F 70% 29.94 in 10.0 mi ENE 13.8 mph 18.4 mph N/A   Overcast
6:34 AM 37.4 °F 28.9 °F 28.4 °F 70% 29.93 in 10.0 mi ENE 13.8 mph 21.9 mph N/A   Overcast
6:54 AM 37.4 °F 28.2 °F 28.4 °F 70% 29.93 in 7.0 mi ENE 16.1 mph 19.6 mph N/A   Overcast
7:14 AM 35.6 °F 27.1 °F 28.4 °F 75% 29.92 in 5.0 mi NE 12.7 mph 21.9 mph N/A   Haze
7:34 AM 35.6 °F 25.2 °F 28.4 °F 75% 29.90 in 10.0 mi ENE 18.4 mph 24.2 mph N/A   Overcast
7:54 AM 35.6 °F 27.5 °F 28.4 °F 75% 29.90 in 10.0 mi NE 11.5 mph 19.6 mph N/A   Overcast
8:14 AM 37.4 °F 29.3 °F 28.4 °F 70% 29.92 in 10.0 mi NE 12.7 mph - N/A   Overcast
8:34 AM 37.4 °F 28.9 °F 28.4 °F 70% 29.91 in 10.0 mi ENE 13.8 mph 18.4 mph N/A   Overcast
8:54 AM 37.4 °F 29.8 °F 28.4 °F 70% 29.91 in 10.0 mi NE 11.5 mph - N/A   Overcast
9:14 AM 37.4 °F 29.3 °F 28.4 °F 70% 29.89 in 10.0 mi NE 12.7 mph 17.3 mph N/A   Overcast
9:34 AM 37.4 °F 29.3 °F 28.4 °F 70% 29.88 in 10.0 mi NE 12.7 mph 19.6 mph N/A   Overcast
9:54 AM 37.4 °F 29.3 °F 28.4 °F 70% 29.88 in 10.0 mi NE 12.7 mph 17.3 mph N/A   Overcast
10:14 AM 37.4 °F 29.8 °F 26.6 °F 65% 29.88 in 10.0 mi ENE 11.5 mph - N/A   Overcast
10:34 AM 37.4 °F 30.3 °F 26.6 °F 65% 29.88 in 10.0 mi ENE 10.4 mph - N/A   Overcast
10:54 AM 37.4 °F 29.8 °F 26.6 °F 65% 29.88 in 10.0 mi ENE 11.5 mph 18.4 mph N/A   Overcast
11:14 AM 37.4 °F 28.5 °F 26.6 °F 65% 29.88 in 10.0 mi ENE 15.0 mph 20.7 mph N/A   Overcast
11:34 AM 37.4 °F 29.8 °F 26.6 °F 65% 29.87 in 10.0 mi ENE 11.5 mph 20.7 mph N/A   Overcast
11:54 AM 37.4 °F 30.8 °F 26.6 °F 65% 29.87 in 10.0 mi East 9.2 mph 19.6 mph N/A   Overcast
12:14 PM 37.4 °F 29.3 °F 26.6 °F 65% 29.89 in 10.0 mi ENE 12.7 mph 17.3 mph N/A   Overcast
12:34 PM 37.4 °F 30.3 °F 26.6 °F 65% 29.88 in 10.0 mi ENE 10.4 mph - N/A   Drizzle
12:54 PM 35.6 °F 28.6 °F 26.6 °F 70% 29.87 in 5.0 mi ENE 9.2 mph - N/A Snow Light Snow
1:14 PM 35.6 °F 28.0 °F 28.4 °F 75% 29.87 in 1.8 mi ENE 10.4 mph - N/A Rain Light Rain
1:34 PM 35.6 °F 28.6 °F 28.4 °F 75% 29.87 in 3.0 mi NE 9.2 mph - N/A Rain Light Rain
1:54 PM 35.6 °F 28.0 °F 28.4 °F 75% 29.86 in 10.0 mi NE 10.4 mph - N/A   Overcast
2:14 PM 35.6 °F 29.2 °F 28.4 °F 75% 29.85 in 2.5 mi NE 8.1 mph - N/A   Haze
2:34 PM 35.6 °F 29.2 °F 28.4 °F 75% 29.84 in 2.5 mi NE 8.1 mph - N/A   Haze
2:54 PM 35.6 °F 28.6 °F 30.2 °F 81% 29.83 in 3.0 mi NE 9.2 mph - N/A   Haze
3:14 PM 35.6 °F 27.5 °F 28.4 °F 75% 29.81 in 4.0 mi NE 11.5 mph - N/A   Haze
3:34 PM 35.6 °F 28.6 °F 28.4 °F 75% 29.81 in 5.0 mi NNE 9.2 mph - N/A   Haze
3:54 PM 35.6 °F 29.2 °F 28.4 °F 75% 29.81 in 5.0 mi NE 8.1 mph 17.3 mph N/A   Haze
4:14 PM 35.6 °F 29.2 °F 28.4 °F 75% 29.81 in 3.0 mi NNE 8.1 mph - N/A   Haze
4:34 PM 33.8 °F 27.0 °F 28.4 °F 81% 29.81 in 2.5 mi NE 8.1 mph - N/A   Light Drizzle
4:54 PM 33.8 °F 29.6 °F 28.4 °F 81% 29.82 in 2.0 mi NNE 4.6 mph - N/A Rain Light Rain
5:14 PM 33.8 °F 26.4 °F 28.4 °F 81% 29.82 in 4.0 mi NNE 9.2 mph - N/A   Light Drizzle
5:34 PM 33.8 °F 27.7 °F 28.4 °F 81% 29.81 in 5.0 mi NNE 6.9 mph - N/A Rain Light Rain
5:54 PM 33.8 °F 28.6 °F 28.4 °F 81% 29.81 in 2.5 mi NNE 5.8 mph - 0.04 in Rain Rain
6:14 PM 33.8 °F 27.0 °F 28.4 °F 81% 29.80 in 5.0 mi NNE 8.1 mph - 0.01 in Rain Light Rain
6:54 PM 33.8 °F 27.7 °F 28.4 °F 81% 29.80 in 4.0 mi NNE 6.9 mph - 0.03 in Rain Rain
7:14 PM 33.8 °F 26.4 °F 28.4 °F 81% 29.78 in 3.0 mi NNE 9.2 mph - 0.03 in Rain Light Rain
7:33 PM 33.8 °F 25.8 °F 28.4 °F 81% 29.78 in 7.0 mi NNE 10.4 mph - 0.04 in Rain Rain
7:54 PM 33.8 °F 27.7 °F 28.4 °F 81% 29.78 in 7.0 mi NNE 6.9 mph - 0.04 in   Light Drizzle
8:14 PM 33.8 °F 27.7 °F 28.4 °F 81% 29.80 in 4.0 mi NNE 6.9 mph - N/A Rain Rain
8:34 PM 33.8 °F 28.6 °F 28.4 °F 81% 29.78 in 3.0 mi NNE 5.8 mph - 0.04 in Snow Light Snow
8:54 PM 33.8 °F 26.4 °F 28.4 °F 81% 29.77 in 3.0 mi NNE 9.2 mph - 0.05 in Snow Light Snow
9:14 PM 33.8 °F 27.0 °F 28.4 °F 81% 29.76 in 5.0 mi North 8.1 mph - 0.01 in Snow Light Snow
9:34 PM 33.8 °F 27.7 °F 28.4 °F 81% 29.78 in 3.0 mi NNE 6.9 mph - 0.01 in   Haze
10:54 PM 33.8 °F 27.7 °F 28.4 °F 81% 29.76 in 1.0 mi North 6.9 mph - 0.01 in Snow Light Snow
11:13 PM 33.8 °F 27.0 °F 28.4 °F 81% 29.75 in 1.5 mi North 8.1 mph - 0.01 in Snow Light Snow
11:34 PM 33.8 °F 27.0 °F 28.4 °F 81% 29.73 in 1.8 mi North 8.1 mph - 0.01 in Snow Light Snow
11:54 PM 33.8 °F 27.7 °F 28.4 °F 81% 29.72 in 2.0 mi North 6.9 mph - 0.01 in Snow Light Snow